Weather History for KHTS - May, 2014

Change the Weather History Date:

Friday, May 23, 2014

  Actual Average Record
Temperature  
Mean Temperature 66 °F 66 °F  
Max Temperature 75 °F 77 °F 93 °F (1921)
Min Temperature 56 °F 55 °F 32 °F (1897)
Degree Days  
Heating Degree Days 0 3  
Month to date heating degree days 102 97  
Since 1 July heating degree days 4813 4485  
Cooling Degree Days 1 3  
Month to date cooling degree days 60 49  
Year to date cooling degree days 74 81  
Growing Degree Days 17 (Base 50)    
Moisture  
Dew Point 50 °F    
Average Humidity 56    
Maximum Humidity 73    
Minimum Humidity 38    
Precipitation  
Precipitation 0.00 in 0.15 in 2.22 in (1913)
Month to date precipitation 1.83 3.42  
Year to date precipitation 18.81 16.80  
Snow  
Snow 0.00 in - - ()
Month to date snowfall 0.0  
Since 1 September snowfall 36.8  
Snow Depth 0.00 in    
Sea Level Pressure  
Sea Level Pressure 30.07 in    
Wind  
Wind Speed 6 mph (NNW)    
Max Wind Speed 15 mph    
Max Gust Speed 20 mph    
Visibility 10 miles    
Events      
T = Trace of Precipitation, MM = Missing Value Source: NWS Daily Summary

Daily Weather History Graph

Daily Weather History Graph

Search for Another Location

Airport or City:

Trip Planner

Search our weather history database for the weather conditions in past years. The results will help you decide how hot, cold, wet, or windy it might be!

Date:

Astronomy

May. 23, 2014 Rise Set
Actual Time 6:12 AM EDT 8:41 PM EDT
Civil Twilight 5:42 AM EDT 9:11 PM EDT
Nautical Twilight 5:04 AM EDT 9:49 PM EDT
Astronomical Twilight 4:23 AM EDT 10:31 PM EDT
Moon 3:02 AM EDT (5/23) 3:37 PM EDT (5/23)
Length of Visible Light 15h 29m
Length of Day
14h 28m
Waning Crescent, 27% of the Moon is Illuminated
May 23
Waning Crescent
May 28
New
Jun 5
First Quarter
Jun 13
Full
Jun 19
Last Quarter

Hourly Weather History & Observations

Time (EDT) Temp. Dew Point Humidity Pressure Visibility Wind Dir Wind Speed Gust Speed Precip Events Conditions
12:51 AM 64.9 °F 55.0 °F 70% 30.00 in 10.0 mi North 4.6 mph - N/A   Clear
1:51 AM 64.0 °F 53.1 °F 67% 30.01 in 10.0 mi NNW 4.6 mph - N/A   Clear
2:51 AM 63.0 °F 54.0 °F 72% 30.01 in 10.0 mi NW 3.5 mph - N/A   Mostly Cloudy
3:51 AM 63.0 °F 53.1 °F 70% 30.01 in 10.0 mi NW 5.8 mph - N/A   Mostly Cloudy
4:51 AM 62.6 °F 51.8 °F 68% 30.04 in 10.0 mi NNW 8.1 mph - N/A   Mostly Cloudy
5:51 AM 60.1 °F 50.0 °F 69% 30.04 in 10.0 mi NW 5.8 mph - N/A   Clear
6:51 AM 60.1 °F 48.9 °F 67% 30.06 in 10.0 mi NW 4.6 mph - N/A   Clear
7:51 AM 63.0 °F 51.1 °F 65% 30.06 in 10.0 mi West 4.6 mph - N/A   Clear
8:51 AM 64.0 °F 51.1 °F 63% 30.09 in 10.0 mi NW 8.1 mph - N/A   Clear
9:51 AM 64.9 °F 48.9 °F 56% 30.09 in 10.0 mi WNW 8.1 mph - N/A   Clear
10:51 AM 66.9 °F 48.9 °F 52% 30.08 in 10.0 mi NNW 8.1 mph - N/A   Clear
11:51 AM 69.1 °F 48.9 °F 49% 30.09 in 10.0 mi Variable 5.8 mph - N/A   Clear
12:51 PM 71.1 °F 50.0 °F 47% 30.10 in 10.0 mi North 8.1 mph - N/A   Scattered Clouds
1:51 PM 72.0 °F 48.9 °F 44% 30.09 in 10.0 mi Variable 5.8 mph - N/A   Clear
2:51 PM 73.0 °F 48.9 °F 42% 30.08 in 10.0 mi NNW 8.1 mph - N/A   Partly Cloudy
3:51 PM 75.0 °F 50.0 °F 41% 30.08 in 10.0 mi NNW 9.2 mph - N/A   Scattered Clouds
4:51 PM 73.9 °F 48.0 °F 40% 30.07 in 10.0 mi North 5.8 mph - N/A   Partly Cloudy
5:51 PM 73.9 °F 46.9 °F 38% 30.07 in 10.0 mi NNW 6.9 mph - N/A   Partly Cloudy
6:51 PM 72.0 °F 46.9 °F 41% 30.07 in 10.0 mi WNW 8.1 mph - N/A   Partly Cloudy
7:51 PM 70.0 °F 46.9 °F 44% 30.08 in 10.0 mi NNW 5.8 mph - N/A   Clear
8:51 PM 64.9 °F 48.0 °F 54% 30.09 in 10.0 mi North 4.6 mph - N/A   Clear
9:51 PM 62.6 °F 48.2 °F 59% 30.11 in 10.0 mi NNE 4.6 mph - N/A   Clear
10:51 PM 62.6 °F 46.4 °F 55% 30.13 in 10.0 mi NNE 4.6 mph - N/A   Clear
11:51 PM 60.1 °F 46.9 °F 62% 30.12 in 10.0 mi NE 3.5 mph - N/A   Clear